Location: Quebec
(46.8000°N, 71.2500°W)
Time: 12:59:16
(UTC-05:00)

Vanguard 2 - All Passes

Search period start: 25 February 2018 00:00
Search period end: 07 March 2018 00:00
Orbit: 553 x 2939 km, 32.9° (Epoch: 24 February)

Date Brightness Start Highest point End Pass type
(mag) Time Alt. Az. Time Alt. Az. Time Alt. Az.
25 Feb - 12:57:14 10° S 13:05:39 16° SSE 13:12:51 10° ESE daylight
25 Feb - 15:03:09 10° SW 15:15:23 30° SSE 15:24:03 10° ESE daylight
25 Feb - 17:13:40 10° WSW 17:24:43 36° S 17:31:52 10° ESE daylight
25 Feb - 19:25:41 10° WSW 19:32:50 24° SSW 19:37:51 10° SSE visible
26 Feb - 13:12:29 10° SSW 13:23:27 21° SSE 13:32:19 10° ESE daylight
26 Feb - 15:20:20 10° SW 15:33:17 35° S 15:42:12 10° ESE daylight
26 Feb - 17:31:33 10° WSW 17:42:32 36° S 17:49:38 10° SE daylight
26 Feb - 19:44:05 10° WSW 19:50:23 20° SSW 19:55:00 10° SSE visible
27 Feb - 11:29:26 10° SE 11:31:33 10° SE 11:33:36 10° SE daylight
27 Feb - 13:28:36 10° SSW 13:41:14 27° SSE 13:51:08 10° ESE daylight
27 Feb - 15:37:46 10° SW 15:51:10 38° S 16:00:12 10° ESE daylight
27 Feb - 17:49:32 10° WSW 18:00:18 34° SSW 18:07:17 10° SE visible
27 Feb - 20:02:48 10° WSW 20:07:49 16° SW 20:11:46 10° S visible
28 Feb - 11:40:42 10° S 11:49:10 16° SE 11:56:51 10° ESE daylight
28 Feb - 13:45:15 10° SSW 13:59:04 32° SSE 14:09:34 10° ESE daylight
28 Feb - 15:55:24 10° WSW 16:09:03 40° S 16:18:07 10° ESE daylight
28 Feb - 18:07:38 10° WSW 18:18:00 32° SSW 18:24:49 10° SE visible
28 Feb - 20:22:21 10° WSW 20:25:10 12° SW 20:27:38 10° SSW visible
01 Mar - 11:55:33 10° S 12:06:49 21° SE 12:16:43 10° ESE daylight
01 Mar - 14:02:17 10° SW 14:16:55 37° SSE 14:27:47 10° ESE daylight
01 Mar - 16:13:13 10° WSW 16:26:54 41° S 16:35:56 10° ESE daylight
01 Mar - 18:25:52 10° WSW 18:35:35 28° SSW 18:42:12 10° SSE visible
02 Mar - 12:11:25 10° SSW 12:24:29 26° SSE 12:35:43 10° ESE daylight
02 Mar - 14:19:36 10° SW 14:34:47 41° S 14:45:51 10° ESE daylight
02 Mar - 16:31:09 10° WSW 16:44:43 41° S 16:53:40 10° SE daylight
02 Mar - 18:44:16 10° W 18:53:05 24° SSW 18:59:20 10° SSE visible
03 Mar - 10:25:30 10° SSE 10:32:29 14° SE 10:39:16 10° ESE daylight
03 Mar - 12:27:52 10° SSW 12:42:11 32° SSE 12:54:18 10° E daylight
03 Mar - 14:37:09 10° WSW 14:52:40 44° S 15:03:49 10° ESE daylight
03 Mar - 16:49:11 10° WSW 17:02:29 39° SSW 17:11:19 10° SE daylight
03 Mar - 19:02:56 10° WSW 19:10:30 20° SW 19:16:07 10° S visible
04 Mar - 10:39:34 10° S 10:49:57 19° SE 10:59:56 10° ESE daylight
04 Mar - 12:44:45 10° SW 12:59:58 37° SSE 13:12:37 10° E daylight
04 Mar - 14:54:52 10° WSW 15:10:32 45° S 15:21:42 10° ESE daylight
04 Mar - 17:07:19 10° W 17:20:09 36° SSW 17:28:48 10° SE daylight
04 Mar - 19:22:09 10° WSW 19:27:46 15° SW 19:32:19 10° SSW visible
05 Mar - 10:55:04 10° S 11:07:27 24° SE 11:19:19 10° E daylight
05 Mar - 13:01:56 10° SW 13:17:46 41° SSE 13:30:46 10° E daylight
05 Mar - 15:12:44 10° WSW 15:28:24 46° S 15:39:30 10° ESE daylight
05 Mar - 17:25:34 10° W 17:37:45 32° SSW 17:46:08 10° SSE daylight
05 Mar - 19:43:12 10° WSW 19:44:58 10° SW 19:46:38 10° SW visible
06 Mar - 09:13:40 10° SE 09:15:52 10° SE 09:18:05 10° ESE daylight
06 Mar - 11:11:17 10° SSW 11:25:01 30° SSE 11:38:06 10° E daylight
06 Mar - 13:19:21 10° SW 13:35:36 45° S 13:48:49 10° ESE daylight
06 Mar - 15:30:42 10° WSW 15:46:13 45° S 15:57:13 10° ESE daylight
06 Mar - 17:43:59 10° W 17:55:13 28° SSW 18:03:14 10° SSE daylight
